Location: Brno
(49.2000°N, 16.6330°E)
Time: 04:36:29
(UTC+02:00)

Iridium 2 - Visible Passes

Search period start: 02 August 2014 00:00
Search period end: 12 August 2014 00:00
Orbit: 536 x 548 km, 85.5° (Epoch: 01 August)

Date Brightness Start Highest point End Pass type
(mag) Time Alt. Az. Time Alt. Az. Time Alt. Az.
02 Aug 4.5 00:16:44 41° WSW 00:17:17 44° W 00:21:06 10° N visible
02 Aug 5.6 22:34:28 17° E 22:35:02 17° E 22:37:40 10° NE visible
03 Aug 4.5 00:10:02 41° WSW 00:10:37 44° W 00:14:26 10° N visible
03 Aug 5.6 22:27:46 17° E 22:28:22 17° E 22:30:59 10° NE visible
04 Aug 4.5 00:03:19 41° WSW 00:03:56 45° W 00:07:46 10° N visible
04 Aug 5.6 22:21:02 16° E 22:21:41 17° E 22:24:17 10° NE visible
04 Aug 4.5 23:56:35 41° WSW 23:57:15 45° W 00:01:06 10° N visible
05 Aug 5.6 22:14:17 16° E 22:15:00 17° E 22:17:34 10° NE visible
05 Aug 4.5 23:49:50 40° WSW 23:50:34 46° W 23:54:24 10° N visible
06 Aug 5.6 22:07:31 16° E 22:08:18 17° E 22:10:52 10° NE visible
06 Aug 4.5 23:43:04 40° WSW 23:43:52 46° W 23:47:43 10° N visible
07 Aug 5.6 22:00:45 16° E 22:01:36 17° E 22:04:08 10° NE visible
07 Aug 4.6 23:36:18 39° WSW 23:37:09 47° W 23:41:01 10° N visible
08 Aug 5.6 21:53:57 15° E 21:54:54 16° E 21:57:25 10° NE visible
08 Aug 4.5 23:29:30 39° WSW 23:30:26 47° W 23:34:18 10° N visible
09 Aug 5.6 21:47:08 15° E 21:48:11 16° E 21:50:40 10° NE visible
09 Aug 4.5 23:22:41 38° SW 23:23:43 48° W 23:27:35 10° N visible
10 Aug 5.6 21:40:18 14° E 21:41:28 16° E 21:43:56 10° NE visible
10 Aug 4.5 23:15:51 36° SW 23:16:59 49° W 23:20:52 10° N visible
11 Aug 5.6 21:33:27 14° ESE 21:34:44 16° E 21:37:10 10° NE visible
11 Aug 4.5 23:08:59 35° SW 23:10:15 49° W 23:14:08 10° N visible
